Location: Newark
(44.2003°N, 3.2583°E)
Time: 07:01:28
(UTC+00:00)

Altair - Pass Details

Date: 29 October 2019
Orbit: 1502 x 1682 km, 47.2° (Epoch: 13 November)

Event Time Altitude Azimuth Distance (km) Brightness Sun altitude
Rises 16:58:29 0° 286° (WNW) 4,859 11.3 -3.7°
Reaches altitude 10° 17:04:09 10° 261° (W) 3,902 11.6 -4.7°
Maximum altitude 17:07:52 13° 238° (WSW) 3,702 10.9 -5.4°
Drops below altitude 10° 17:11:37 10° 216° (SW) 3,926 10.4 -6.0°
Sets 17:17:26 0° 190° (S) 4,919 10.5 -7.0°
